Regional Weather Roundup
Issued by NWS New Orleans/Baton Rouge, LA

Home | Current Version | Previous Version | Graphics & Text | Print | Product List | Glossary On
Versions: 1 2 3 4 5 6 7 8 9 10 11 12 13 14 15 16 17 18 19 20 21 22 23 24 25 26 27 28 29 30 31 32 33 34 35 36 37 38 39 40 41 42 43 44 45 46 47 48 49 50
991
ASUS44 KLIX 240710
RWRLIX
NEW ORLEANS REGIONAL WEATHER ROUNDUP
NATIONAL WEATHER SERVICE NEW ORLEANS LA
200 AM CDT THU APR 24 2014

NOTE: "FAIR" INDICATES FEW OR NO CLOUDS BELOW 12,000 FEET WITH NO
      SIGNIFICANT WEATHER AND/OR OBSTRUCTIONS TO VISIBILITY.
      SKY/WX - SKY CONDITION AND SIGNIFICANT WEATHER.
      TMP - AIR TEMPERATURE.     DP    - DEWPOINT TEMPERATURE.
      RH  - RELATIVE HUMIDITY.   PRES  - PRESSURE.
      HI  - HEAT INDEX.          WCI   - WIND CHILL INDEX.

*  THESE STATIONS ARE NOT NWS OR FAA STATIONS AND ARE NOT UNDER
   NWS QUALITY CONTROL.

LAZ038-040-048-061>063-065>067-069-240800-
SOUTHEAST LOUISIANA

CITY           SKY/WX    TMP DP  RH WIND       PRES   REMARKS
N.O. AUDUBON   NOT AVBL
N.O. INTL ARPT CLEAR     66  63  90 SW5       29.92S
N.O. LAKEFRONT CLEAR     70  66  87 W8        29.93S
N.O. DOWNTOWN*   N/A     72  63  73 S5        29.93S
SLIDELL        CLEAR     62  58  86 CALM      29.92S
BATON ROUGE    CLEAR     67  62  84 W5        29.91F
BOOTHVILLE     CLEAR     69  66  90 S6        29.93S
BELLE CHASSE   CLEAR     63  57  82 CALM      29.92S FOG
BOGALUSA*        N/A     60  57  88 CALM      29.93F
GALLIANO*      SUNNY     63  60  91 CALM      29.93S
NEW ROADS*       N/A     64  62  94 E3        29.92S
GONZALES*        N/A     62  62 100 CALM      29.92S FOG
HAMMOND*       CLEAR     64  59  82 CALM      29.93F
HOUMA*         FOG       63  61  92 CALM      29.93S VSB 1/2
PORT FOURCHON* SUNNY     70  66  88 SW3       29.95S

$$

MSZ070-080>082-240800-
SOUTHERN MISSISSIPPI

CITY           SKY/WX    TMP DP  RH WIND       PRES   REMARKS
MCCOMB         MOCLDY    63  59  87 SW3       29.92F
GULFPORT       CLEAR     68  64  87 CALM      29.91S FOG
BILOXI         CLEAR     68  67  97 W3        29.91F
PASCAGOULA     FOG       60  60 100 CALM      29.92S VSB 1

$$

COASTAL OBSERVATIONS
LAKE AND NEARSHORE STATIONS

STATION/POSITION TIME  TEMP    WIND        PRES    WAVE
                       AIR SEA DIR/SP/G            HT/PER
                 (UTC) (F)     (DEG/KT/KT) (MB)    (FT/S)
PASCAGOULA       0700   70     220/  6/  8 1012.3
WAVELAND YACHT   0700   68 76  260/  2/  4 1012.2
GRAND ISLE       0700   70 72  230/  4/  5 1014.0
SOUTHWEST PASS   0700   67 60  200/  5/  5 1013.5
NEW CANAL        0700   70 71  240/  5/  7 1013.7
SHELL BEACH      0700   69 69  200/  3/  4 1013.0

OFFSHORE STATIONS

STATION/POSITION TIME  TEMP    WIND        PRES    WAVE
                       AIR SEA DIR/SP/G            HT/PER
                 (UTC) (F)     (DEG/KT/KT) (MB)    (FT/S)
64 S DAUPHIN ISL 0600   69 71  210/  6/  6 1013.2

$$




USA.gov is the U.S. government's official web portal to all federal, state and local government web resources and services.